星链-4415 (STARLINK-4415 )

导读 | 星芒AI

STARLINK-4415 是 SpaceX Starlink 卫星互联网项目中的一颗低轨卫星,属于第 5 批次部署的星链卫星之一。该卫星运行在约 550 公里的近地轨道上,旨在为全球用户提供高速互联网服务。Starlink 项目致力于通过大规模卫星群提升网络覆盖,特别是在偏远和网络基础设施薄弱的地区。STARLINK-4415 采用先进推进系统和激光通信技术,以提高连接稳定性和减少延迟。

基本信息
目录编号:
53465
目录名称:
STARLINK-4415
国际标识:
2022-099A
轨道中心:
EARTH
卫星名称:
星链-4415
卫星全名:
星链-4415 (STARLINK-4415 )
卫星状态:
在轨 (已飞行1227 天)
发射日期:
2022-08-12 UTC
国别 :
美国 (US)
星等 :
--
轨道信息
数据来源 国际轨道数据 AOE轨道数据
星历时间 2025-12-21T04:51:42+0800
10小时前
查看轨道信息
2025-12-16T13:00:00+0800
5天前
查看轨道信息
半长轴 6927.668km 6927.641km
偏心率 0.0000937 0.0000887
轨道倾角 97.604° 97.602°
近地点辐角 105.700° 92.251°
升交点赤经 113.525° 108.930°
平近点角 254.433° 220.132°
近地点 548.881km 548.891km
远地点 550.181km 550.121km
周期 95.640分钟 95.640分钟
每日圈数 15.056436 15.056526
详细信息
固有亮度:
5
最大亮度:
2.5
卫星平台:
Starlink v1.5
覆盖范围:
全球
运营商:
太空探索技术公司
运营商所在国:
美国
制造商(研发单位):
太空探索技术公司
制造商所在国:
美国
使用方式:
暂无
卫星简介
星链(Starlink)计划是由太空探索技术公司(SpaceX)提出的一个巨型低轨卫星互联网星座项目,计划在2019年至2024年间在太空搭建由约1.2万颗卫星组成的“星链”网络,其中1584颗将部署在地球上空550千米处的近地轨道,并从2020年开始工作。该卫星仍在工作。
2D轨道图
3D轨道图
轨道高度分析图
轨道倾角分析图
轨道综合分析图
查看轨道综合分析图